リニア彗星

C/2007 D1 ( LINEAR )

English version
Home page
Updated on April 7, 2012

---------------------------------------------------------------------

・ プロフィール

発見日 2007年2月17日
発見光度 18.9等
発見者 Lincoln Laboratory Near-Earth Asteroid Research project

・ 写真集

・ 軌道要素

Epoch 2007 June 29.0 TT = JDT 2454280.5
T 2007 June 19.45774 TT                                 MPC
q   8.7937142            (2000.0)            P               Q
z  -0.0002180      Peri.  340.15907     -0.88994489     -0.44441660
 +/-0.0000013      Node   171.09853     +0.45350672     -0.83856875
e   1.0019171      Incl.   41.45027     -0.04826748     +0.31511320
From 444 observations 2007 Feb. 17-2012 Mar. 31, mean residual 0".5.

・ 星図

・ 光度変化

        m1 = 3.0 + 5 logΔ + 10.0 log r

---------------------------------------------------------------------

軌道要素はM.P.E.C. 2012-G18に掲載されたものです。
星図は StellaNavigator Ver.2.0 for Windows (アストロアーツ編著 / アスキー出版局刊) で作成したものです。
光度グラフはComet for Windowsで作成したものです。

---------------------------------------------------------------------

Copyright(C) Seiichi Yoshida (comet@aerith.net). All rights reserved.